Location: Ehrenfriedersdorf
(50.6405°N, 12.9575°E)
Time: 15:00:35
(UTC+02:00)

ISS - Visible Passes

Search period start: 23 May 2018 00:00
Search period end: 02 June 2018 00:00
Orbit: 402 x 407 km, 51.6° (Epoch: 24 May)

Date Brightness Start Highest point End Pass type
(mag) Time Alt. Az. Time Alt. Az. Time Alt. Az.
23 May -3.6 00:37:56 10° W 00:41:12 72° N 00:44:29 10° E visible
23 May -4.0 02:14:29 10° WNW 02:17:44 70° SSW 02:20:59 10° ESE visible
23 May -2.4 03:51:27 10° W 03:53:49 19° SW 03:56:12 10° S visible
23 May -3.6 22:09:26 10° SW 22:12:34 45° SSE 22:15:44 10° E visible
23 May -3.7 23:45:43 10° W 23:48:59 76° N 23:52:16 10° E visible
24 May -4.0 01:22:17 10° WNW 01:25:35 90° SSE 01:27:55 18° ESE visible
24 May -2.2 02:58:57 10° W 03:00:18 19° WSW 03:00:18 19° WSW visible
24 May -3.9 22:53:29 10° WSW 22:56:46 88° NNW 23:00:03 10° ENE visible
25 May -3.8 00:30:05 10° W 00:33:21 77° N 00:35:43 17° E visible
25 May -2.4 02:06:37 10° W 02:08:18 25° W 02:08:18 25° W visible
25 May -3.9 22:01:18 10° WSW 22:04:34 73° SSE 22:07:50 10° ENE visible
25 May -3.6 23:37:51 10° W 23:41:07 72° N 23:44:23 10° E visible
26 May -3.7 01:14:23 10° WNW 01:17:14 55° WSW 01:17:14 55° WSW visible
26 May -3.6 22:45:35 10° W 22:48:51 73° N 22:52:08 10° E visible
27 May -4.0 00:22:08 10° WNW 00:25:25 83° SSW 00:26:24 42° ESE visible
27 May -1.2 01:58:53 10° W 01:59:01 11° W 01:59:01 11° W visible
27 May -3.7 21:53:18 10° W 21:56:36 83° N 21:59:52 10° ENE visible
27 May -3.8 23:29:54 10° WNW 23:33:11 81° N 23:35:40 16° E visible
28 May -2.4 01:06:28 10° W 01:08:17 26° WSW 01:08:17 26° WSW visible
28 May -3.6 22:37:38 10° W 22:40:55 73° N 22:44:10 10° E visible
29 May -3.8 00:14:10 10° WNW 00:17:22 54° SSW 00:17:36 53° S visible
29 May -3.9 23:21:52 10° WNW 23:25:10 76° SSW 23:26:58 24° ESE visible
30 May -1.6 00:58:44 10° W 00:59:36 15° WSW 00:59:36 15° WSW visible
30 May -3.8 22:29:36 10° WNW 22:32:53 86° N 22:36:10 10° E visible
31 May -2.9 00:06:13 10° W 00:08:59 31° SW 00:08:59 31° SW visible
31 May -3.5 23:13:50 10° W 23:17:00 48° SSW 23:18:24 27° SE visible
01 Jun -3.8 22:21:30 10° WNW 22:24:46 68° SSW 22:27:49 11° ESE visible
